Regional Weather Roundup
Issued by NWS Portland, ME

Home | Current Version | Previous Version | Text Only | Print | Product List | Glossary On
Versions: 1 2 3 4 5 6 7 8 9 10 11 12 13 14 15 16 17 18 19 20 21 22 23 24 25 26 27 28 29 30 31 32 33 34 35 36 37 38 39 40 41 42 43 44 45 46 47 48 49 50
000
ASUS41 KGYX 271510
RWRGYX
WEATHER ROUNDUP FOR MAINE AND NEW HAMPSHIRE
NATIONAL WEATHER SERVICE GRAY ME
1100 AM EDT FRI MAR 27 2015

MEZ002-005-006-010-012-015-018-020-021-024-026-027-029-271600-
MAINE

CITY           SKY/WX    TMP DP  RH WIND       PRES   REMARKS
PORTLAND       CLOUDY    43  36  76 N7        29.73S
SANFORD        CLOUDY    37  32  81 NW5       29.73R
BAR HARBOR     CLOUDY    39  37  93 N5        29.69F
WISCASSET      CLOUDY    41  37  86 CALM      29.72S
ROCKLAND       CLOUDY    39  34  81 N5        29.69F
FRYEBURG       CLOUDY    39  35  86 CALM      29.72R
LEWISTONAUBURN CLOUDY    39  36  87 CALM      29.70F
AUGUSTA        CLOUDY    38  35  89 W5        29.70F
WATERVILLE     CLOUDY    39  34  81 W6        29.68F
BANGOR         CLOUDY    38  34  85 NW6       29.69F
GREENVILLE       N/A     35  30  82 NW9       29.64F
MILLINOCKET    CLOUDY    40  31  70 NW10      29.69S
HOULTON        CLOUDY    38  30  73 N5        29.67S
PRESQUE ISLE   CLOUDY    36  23  60 N6        29.69R
FRENCHVILLE    LGT SNOW  29  22  75 NW7       29.67R
CARIBOU        LGT SNOW  33  27  78 N6        29.68R
$$

NHZ002-005-008-009-011-012-014-271600-
NEW HAMPSHIRE

CITY           SKY/WX    TMP DP  RH WIND       PRES   REMARKS
PORTSMOUTH     LGT RAIN  39  35  87 NW6       29.73R
ROCHESTER      LGT RAIN  38  35  89 CALM      29.73R
NASHUA         CLOUDY    39  37  92 N3        29.74S
MANCHESTER     LGT RAIN  38  38 100 N5        29.72R
CONCORD        CLOUDY    40  36  86 N3        29.72F
LACONIA        CLOUDY    37  34  87 CALM      29.71R
PLYMOUTH       CLOUDY    39  36  87 CALM      29.70F
BERLIN         CLOUDY    37  30  75 CALM      29.69S
WHITEFIELD     CLOUDY    37  32  82 CALM      29.70S
JAFFREY        CLOUDY    38  35  89 CALM      29.71F
KEENE          CLOUDY    37  36  93 N5        29.73F
LEBANON        CLOUDY    38  34  85 CALM      29.72S
MT WASHINGTON  FOG       16  16 100 NW29        N/A  VSB 1/16WCI  -4
$$

VTZ005-007-008-271600-
VERMONT

CITY           SKY/WX    TMP DP  RH WIND       PRES   REMARKS
ST JOHNSBURY     N/A     38  31  76 MISG      29.69F
MONTPELIER     CLOUDY    34  32  92 CALM      29.74S
BURLINGTON     CLOUDY    36  34  93 CALM      29.75F FOG
$$

MAZ007-012-024-CTZ003-RIZ002-NYZ038-NYZ072-271600-
SOUTHERN NEW ENGLAND AND NY

CITY           SKY/WX    TMP DP  RH WIND       PRES   REMARKS
BOSTON         CLOUDY    41  38  89 N5        29.73F
WORCESTER      CLOUDY    38  34  85 NW5       29.70R
NANTUCKET      CLOUDY    41  38  89 N22       29.68S
PROVIDENCE     CLOUDY    42  37  82 N9        29.72S
HARTFORD       CLOUDY    41  36  82 N6        29.73F
ALBANY         CLOUDY    40  30  67 W8        29.76S
NEW YORK CITY  CLOUDY    42  34  73 VRB5      29.75F
$$

ANZ081-ANZ082-ANZ150-NHZ014-MEZ023>029-271600-
COASTAL MARINE OBSERVATIONS

STATION/POSITION TIME  TEMP    WIND        PRES    WAVE
                       AIR SEA DIR/SP/G            HT/PER
                 (UTC) (F)     (DEG/KT/KT) (MB)    (FT/S)
MOUNT DESERT ROC 1500   37                 1004.8F
MATINICUS ROCK   1500   36      20/  6/  8 1005.6F
WELLS            1400   38      30/  3/  4 1005.5F
ISLE OF SHOALS   1500   38     360/  8/  9 1006.3R
JEFFREYS LEDGE   1421      40                N/A     4/ 9
CASHES LEDGE BUO 1450   38 38              1005.8R   6/ 9
$$

.............KEY..............
   WCI - WIND CHILL
   TC  - TEMPERATURE IN CELSIUS
   VSB - VISIBILITY IN MILES
   HX  - HEAT INDEX
   FAIR- INDICATES FEW OR NO CLOUDS BELOW 12,000 FT, WITH NO
         SIGNIFICANT WEATHER AND/OR OBSTRUCTIONS TO VISIBILITY.




USA.gov is the U.S. government's official web portal to all federal, state and local government web resources and services.